owner,sensor,date,latitude,longitude,vertical_datum,sea_water_temperature,qcFlag 
ADCP,ioos:station:wmo:42395:1,2019-08-01T00:00:00Z,26.4040,-90.7920,0.0,30.03906,11111222 
ADCP,ioos:station:wmo:42395:1,2019-08-01T00:20:00Z,26.4040,-90.7920,0.0,30.03906,11111222 
ADCP,ioos:station:wmo:42395:1,2019-08-01T00:40:00Z,26.4040,-90.7920,0.0,30.03906,11111222 
ADCP,ioos:station:wmo:42395:1,2019-08-01T01:00:00Z,26.4040,-90.7920,0.0,30.03906,11111222 
ADCP,ioos:station:wmo:42395:1,2019-08-01T01:20:00Z,26.4040,-90.7920,0.0,30.03906,11111222 
ADCP,ioos:station:wmo:42395:1,2019-08-01T01:40:00Z,26.4040,-90.7920,0.0,30.0,11111222 
ADCP,ioos:station:wmo:42395:1,2019-08-01T02:00:00Z,26.4040,-90.7920,0.0,30.0,11111222 
ADCP,ioos:station:wmo:42395:1,2019-08-01T02:20:00Z,26.4040,-90.7920,0.0,29.96094,11111222 
ADCP,ioos:station:wmo:42395:1,2019-08-01T02:40:00Z,26.4040,-90.7920,0.0,29.96094,11111222 
ADCP,ioos:station:wmo:42395:1,2019-08-01T03:00:00Z,26.4040,-90.7920,0.0,29.96094,11111222 
ADCP,ioos:station:wmo:42395:1,2019-08-01T03:20:00Z,26.4040,-90.7920,0.0,29.92188,11111222 
ADCP,ioos:station:wmo:42395:1,2019-08-01T03:40:00Z,26.4040,-90.7920,0.0,29.92188,11111222 
ADCP,ioos:station:wmo:42395:1,2019-08-01T04:00:00Z,26.4040,-90.7920,0.0,29.96094,11111222 
ADCP,ioos:station:wmo:42395:1,2019-08-01T04:20:00Z,26.4040,-90.7920,0.0,29.96094,11111222 
ADCP,ioos:station:wmo:42395:1,2019-08-01T04:40:00Z,26.4040,-90.7920,0.0,30.0,11111222 
ADCP,ioos:station:wmo:42395:1,2019-08-01T05:00:00Z,26.4040,-90.7920,0.0,29.96094,11111222 
ADCP,ioos:station:wmo:42395:1,2019-08-01T05:20:00Z,26.4040,-90.7920,0.0,29.84375,11111222 
ADCP,ioos:station:wmo:42395:1,2019-08-01T05:40:00Z,26.4040,-90.7920,0.0,29.76563,11111222 
ADCP,ioos:station:wmo:42395:1,2019-08-01T06:00:00Z,26.4040,-90.7920,0.0,29.6875,11111222 
ADCP,ioos:station:wmo:42395:1,2019-08-01T06:20:00Z,26.4040,-90.7920,0.0,29.64844,11111222 
ADCP,ioos:station:wmo:42395:1,2019-08-01T06:40:00Z,26.4040,-90.7920,0.0,29.60938,11111222 
ADCP,ioos:station:wmo:42395:1,2019-08-01T07:00:00Z,26.4040,-90.7920,0.0,29.57031,11111222 
ADCP,ioos:station:wmo:42395:1,2019-08-01T07:20:00Z,26.4040,-90.7920,0.0,29.53125,11111222 
ADCP,ioos:station:wmo:42395:1,2019-08-01T07:40:00Z,26.4040,-90.7920,0.0,29.53125,11111222 
ADCP,ioos:station:wmo:42395:1,2019-08-01T08:00:00Z,26.4040,-90.7920,0.0,29.53125,11111222 
ADCP,ioos:station:wmo:42395:1,2019-08-01T08:20:00Z,26.4040,-90.7920,0.0,29.53125,11111222 
ADCP,ioos:station:wmo:42395:1,2019-08-01T08:40:00Z,26.4040,-90.7920,0.0,29.53125,11111222 
ADCP,ioos:station:wmo:42395:1,2019-08-01T09:00:00Z,26.4040,-90.7920,0.0,29.53125,11111222 
ADCP,ioos:station:wmo:42395:1,2019-08-01T09:20:00Z,26.4040,-90.7920,0.0,29.53125,11111222 
ADCP,ioos:station:wmo:42395:1,2019-08-01T09:40:00Z,26.4040,-90.7920,0.0,29.53125,11111222 
ADCP,ioos:station:wmo:42395:1,2019-08-01T10:00:00Z,26.4040,-90.7920,0.0,29.49219,11111222 
ADCP,ioos:station:wmo:42395:1,2019-08-01T10:20:00Z,26.4040,-90.7920,0.0,29.49219,11111222 
ADCP,ioos:station:wmo:42395:1,2019-08-01T10:40:00Z,26.4040,-90.7920,0.0,29.49219,11111222 
ADCP,ioos:station:wmo:42395:1,2019-08-01T11:00:00Z,26.4040,-90.7920,0.0,29.45313,11111222 
ADCP,ioos:station:wmo:42395:1,2019-08-01T11:20:00Z,26.4040,-90.7920,0.0,29.45313,11111222 
ADCP,ioos:station:wmo:42395:1,2019-08-01T11:40:00Z,26.4040,-90.7920,0.0,29.41406,11111222 
ADCP,ioos:station:wmo:42395:1,2019-08-01T12:00:00Z,26.4040,-90.7920,0.0,29.375,11111222 
ADCP,ioos:station:wmo:42395:1,2019-08-01T12:20:00Z,26.4040,-90.7920,0.0,29.375,11111222 
ADCP,ioos:station:wmo:42395:1,2019-08-01T12:40:00Z,26.4040,-90.7920,0.0,29.33594,11111222 
ADCP,ioos:station:wmo:42395:1,2019-08-01T13:00:00Z,26.4040,-90.7920,0.0,29.33594,11111222 
ADCP,ioos:station:wmo:42395:1,2019-08-01T13:20:00Z,26.4040,-90.7920,0.0,29.33594,11111222 
ADCP,ioos:station:wmo:42395:1,2019-08-01T13:40:00Z,26.4040,-90.7920,0.0,29.33594,11111222 
ADCP,ioos:station:wmo:42395:1,2019-08-01T14:00:00Z,26.4040,-90.7920,0.0,29.33594,11111222 
ADCP,ioos:station:wmo:42395:1,2019-08-01T14:20:00Z,26.4040,-90.7920,0.0,29.33594,11111222 
ADCP,ioos:station:wmo:42395:1,2019-08-01T14:40:00Z,26.4040,-90.7920,0.0,29.33594,11111222 
ADCP,ioos:station:wmo:42395:1,2019-08-01T15:00:00Z,26.4040,-90.7920,0.0,29.33594,11111222 
ADCP,ioos:station:wmo:42395:1,2019-08-01T15:20:00Z,26.4040,-90.7920,0.0,29.33594,11111222 
ADCP,ioos:station:wmo:42395:1,2019-08-01T15:40:00Z,26.4040,-90.7920,0.0,29.375,11111222 
ADCP,ioos:station:wmo:42395:1,2019-08-01T16:00:00Z,26.4040,-90.7920,0.0,29.41406,11111222 
ADCP,ioos:station:wmo:42395:1,2019-08-01T16:20:00Z,26.4040,-90.7920,0.0,29.45313,11111222 
ADCP,ioos:station:wmo:42395:1,2019-08-01T16:40:00Z,26.4040,-90.7920,0.0,29.53125,11111222 
ADCP,ioos:station:wmo:42395:1,2019-08-01T17:00:00Z,26.4040,-90.7920,0.0,29.57031,11111222 
ADCP,ioos:station:wmo:42395:1,2019-08-01T17:20:00Z,26.4040,-90.7920,0.0,29.64844,11111222 
ADCP,ioos:station:wmo:42395:1,2019-08-01T17:40:00Z,26.4040,-90.7920,0.0,29.72656,11111222 
ADCP,ioos:station:wmo:42395:1,2019-08-01T18:00:00Z,26.4040,-90.7920,0.0,29.76563,11111222 
ADCP,ioos:station:wmo:42395:1,2019-08-01T18:20:00Z,26.4040,-90.7920,0.0,29.76563,11111222 
ADCP,ioos:station:wmo:42395:1,2019-08-01T18:40:00Z,26.4040,-90.7920,0.0,29.84375,11111222 
ADCP,ioos:station:wmo:42395:1,2019-08-01T19:00:00Z,26.4040,-90.7920,0.0,29.88281,11111222 
ADCP,ioos:station:wmo:42395:1,2019-08-01T19:20:00Z,26.4040,-90.7920,0.0,29.88281,11111222 
ADCP,ioos:station:wmo:42395:1,2019-08-01T19:40:00Z,26.4040,-90.7920,0.0,29.88281,11111222 
ADCP,ioos:station:wmo:42395:1,2019-08-01T20:00:00Z,26.4040,-90.7920,0.0,29.84375,11111222 
ADCP,ioos:station:wmo:42395:1,2019-08-01T20:20:00Z,26.4040,-90.7920,0.0,29.88281,11111222 
ADCP,ioos:station:wmo:42395:1,2019-08-01T20:40:00Z,26.4040,-90.7920,0.0,29.84375,11111222 
ADCP,ioos:station:wmo:42395:1,2019-08-01T21:00:00Z,26.4040,-90.7920,0.0,29.80469,11111222 
ADCP,ioos:station:wmo:42395:1,2019-08-01T21:20:00Z,26.4040,-90.7920,0.0,29.80469,11111222 
ADCP,ioos:station:wmo:42395:1,2019-08-01T21:40:00Z,26.4040,-90.7920,0.0,29.80469,11111222 
ADCP,ioos:station:wmo:42395:1,2019-08-01T22:00:00Z,26.4040,-90.7920,0.0,29.80469,11111222 
ADCP,ioos:station:wmo:42395:1,2019-08-01T22:20:00Z,26.4040,-90.7920,0.0,29.80469,11111222 
ADCP,ioos:station:wmo:42395:1,2019-08-01T22:40:00Z,26.4040,-90.7920,0.0,29.80469,11111222 
ADCP,ioos:station:wmo:42395:1,2019-08-01T23:00:00Z,26.4040,-90.7920,0.0,29.76563,11111222 
ADCP,ioos:station:wmo:42395:1,2019-08-01T23:20:00Z,26.4040,-90.7920,0.0,29.76563,11111222 
ADCP,ioos:station:wmo:42395:1,2019-08-01T23:40:00Z,26.4040,-90.7920,0.0,29.72656,11111222 
ADCP,ioos:station:wmo:42395:1,2019-08-02T00:00:00Z,26.4040,-90.7920,0.0,29.72656,11111222 
ADCP,ioos:station:wmo:42395:1,2019-08-02T00:20:00Z,26.4040,-90.7920,0.0,29.6875,11111222 
ADCP,ioos:station:wmo:42395:1,2019-08-02T00:40:00Z,26.4040,-90.7920,0.0,29.60938,11111222 
ADCP,ioos:station:wmo:42395:1,2019-08-02T01:00:00Z,26.4040,-90.7920,0.0,29.60938,11111222 
ADCP,ioos:station:wmo:42395:1,2019-08-02T01:20:00Z,26.4040,-90.7920,0.0,29.60938,11111222 
ADCP,ioos:station:wmo:42395:1,2019-08-02T01:40:00Z,26.4040,-90.7920,0.0,29.60938,11111222 
ADCP,ioos:station:wmo:42395:1,2019-08-02T02:00:00Z,26.4040,-90.7920,0.0,29.60938,11111222 
ADCP,ioos:station:wmo:42395:1,2019-08-02T02:20:00Z,26.4040,-90.7920,0.0,29.60938,11111222 
ADCP,ioos:station:wmo:42395:1,2019-08-02T02:40:00Z,26.4040,-90.7920,0.0,29.60938,11111222 
ADCP,ioos:station:wmo:42395:1,2019-08-02T03:20:00Z,26.4040,-90.7920,0.0,29.57031,11111222 
ADCP,ioos:station:wmo:42395:1,2019-08-02T03:40:00Z,26.4040,-90.7920,0.0,29.60938,11111222 
ADCP,ioos:station:wmo:42395:1,2019-08-02T04:00:00Z,26.4040,-90.7920,0.0,29.64844,11111222 
ADCP,ioos:station:wmo:42395:1,2019-08-02T04:20:00Z,26.4040,-90.7920,0.0,29.64844,11111222 
ADCP,ioos:station:wmo:42395:1,2019-08-02T04:40:00Z,26.4040,-90.7920,0.0,29.6875,11111222 
ADCP,ioos:station:wmo:42395:1,2019-08-02T05:00:00Z,26.4040,-90.7920,0.0,29.6875,11111222 
ADCP,ioos:station:wmo:42395:1,2019-08-02T05:20:00Z,26.4040,-90.7920,0.0,29.6875,11111222 
ADCP,ioos:station:wmo:42395:1,2019-08-02T05:40:00Z,26.4040,-90.7920,0.0,29.64844,11111222 
ADCP,ioos:station:wmo:42395:1,2019-08-02T06:00:00Z,26.4040,-90.7920,0.0,29.6875,11111222 
ADCP,ioos:station:wmo:42395:1,2019-08-02T06:20:00Z,26.4040,-90.7920,0.0,29.6875,11111222 
ADCP,ioos:station:wmo:42395:1,2019-08-02T06:40:00Z,26.4040,-90.7920,0.0,29.64844,11111222 
ADCP,ioos:station:wmo:42395:1,2019-08-02T07:00:00Z,26.4040,-90.7920,0.0,29.60938,11111222 
ADCP,ioos:station:wmo:42395:1,2019-08-02T07:20:00Z,26.4040,-90.7920,0.0,29.57031,11111222 
ADCP,ioos:station:wmo:42395:1,2019-08-02T07:40:00Z,26.4040,-90.7920,0.0,29.57031,11111222 
ADCP,ioos:station:wmo:42395:1,2019-08-02T08:00:00Z,26.4040,-90.7920,0.0,29.57031,11111222 
ADCP,ioos:station:wmo:42395:1,2019-08-02T08:20:00Z,26.4040,-90.7920,0.0,29.53125,11111222 
ADCP,ioos:station:wmo:42395:1,2019-08-02T08:40:00Z,26.4040,-90.7920,0.0,29.49219,11111222 
ADCP,ioos:station:wmo:42395:1,2019-08-02T09:00:00Z,26.4040,-90.7920,0.0,29.49219,11111222 
ADCP,ioos:station:wmo:42395:1,2019-08-02T09:20:00Z,26.4040,-90.7920,0.0,29.45313,11111222 
ADCP,ioos:station:wmo:42395:1,2019-08-02T09:40:00Z,26.4040,-90.7920,0.0,29.41406,11111222 
ADCP,ioos:station:wmo:42395:1,2019-08-02T10:00:00Z,26.4040,-90.7920,0.0,29.41406,11111222 
ADCP,ioos:station:wmo:42395:1,2019-08-02T10:20:00Z,26.4040,-90.7920,0.0,29.17969,11111222 
ADCP,ioos:station:wmo:42395:1,2019-08-02T10:40:00Z,26.4040,-90.7920,0.0,29.33594,11111222 
ADCP,ioos:station:wmo:42395:1,2019-08-02T11:00:00Z,26.4040,-90.7920,0.0,29.29688,11111222 
ADCP,ioos:station:wmo:42395:1,2019-08-02T11:20:00Z,26.4040,-90.7920,0.0,29.375,11111222 
ADCP,ioos:station:wmo:42395:1,2019-08-02T11:40:00Z,26.4040,-90.7920,0.0,29.10156,11111222 
ADCP,ioos:station:wmo:42395:1,2019-08-02T12:00:00Z,26.4040,-90.7920,0.0,29.29688,11111222 
ADCP,ioos:station:wmo:42395:1,2019-08-02T12:20:00Z,26.4040,-90.7920,0.0,29.375,11111222 
ADCP,ioos:station:wmo:42395:1,2019-08-02T12:40:00Z,26.4040,-90.7920,0.0,29.375,11111222 
ADCP,ioos:station:wmo:42395:1,2019-08-02T13:00:00Z,26.4040,-90.7920,0.0,29.41406,11111222 
ADCP,ioos:station:wmo:42395:1,2019-08-02T13:20:00Z,26.4040,-90.7920,0.0,29.45313,11111222 
ADCP,ioos:station:wmo:42395:1,2019-08-02T13:40:00Z,26.4040,-90.7920,0.0,29.45313,11111222 
ADCP,ioos:station:wmo:42395:1,2019-08-02T14:00:00Z,26.4040,-90.7920,0.0,29.45313,11111222 
ADCP,ioos:station:wmo:42395:1,2019-08-02T14:20:00Z,26.4040,-90.7920,0.0,29.49219,11111222 
ADCP,ioos:station:wmo:42395:1,2019-08-02T14:40:00Z,26.4040,-90.7920,0.0,29.57031,11111222 
ADCP,ioos:station:wmo:42395:1,2019-08-02T15:00:00Z,26.4040,-90.7920,0.0,29.60938,11111222 
ADCP,ioos:station:wmo:42395:1,2019-08-02T15:20:00Z,26.4040,-90.7920,0.0,29.6875,11111222 
ADCP,ioos:station:wmo:42395:1,2019-08-02T15:40:00Z,26.4040,-90.7920,0.0,29.6875,11111222 
ADCP,ioos:station:wmo:42395:1,2019-08-02T16:00:00Z,26.4040,-90.7920,0.0,29.80469,11111222 
ADCP,ioos:station:wmo:42395:1,2019-08-02T16:20:00Z,26.4040,-90.7920,0.0,29.96094,11111222 
ADCP,ioos:station:wmo:42395:1,2019-08-02T16:40:00Z,26.4040,-90.7920,0.0,30.15625,11111222 
ADCP,ioos:station:wmo:42395:1,2019-08-02T17:00:00Z,26.4040,-90.7920,0.0,30.23438,11111222 
ADCP,ioos:station:wmo:42395:1,2019-08-02T17:20:00Z,26.4040,-90.7920,0.0,30.46875,11111222 
ADCP,ioos:station:wmo:42395:1,2019-08-02T17:40:00Z,26.4040,-90.7920,0.0,30.625,11111222 
ADCP,ioos:station:wmo:42395:1,2019-08-02T18:00:00Z,26.4040,-90.7920,0.0,30.74219,11111222 
ADCP,ioos:station:wmo:42395:1,2019-08-02T18:20:00Z,26.4040,-90.7920,0.0,30.97656,11111222 
ADCP,ioos:station:wmo:42395:1,2019-08-02T18:40:00Z,26.4040,-90.7920,0.0,31.17188,11111222 
ADCP,ioos:station:wmo:42395:1,2019-08-02T19:00:00Z,26.4040,-90.7920,0.0,31.44531,11111222 
ADCP,ioos:station:wmo:42395:1,2019-08-02T19:20:00Z,26.4040,-90.7920,0.0,31.5625,11111222 
ADCP,ioos:station:wmo:42395:1,2019-08-02T19:40:00Z,26.4040,-90.7920,0.0,31.5625,11111222 
ADCP,ioos:station:wmo:42395:1,2019-08-02T20:00:00Z,26.4040,-90.7920,0.0,31.32813,11111222 
ADCP,ioos:station:wmo:42395:1,2019-08-02T20:20:00Z,26.4040,-90.7920,0.0,31.21094,11111222 
ADCP,ioos:station:wmo:42395:1,2019-08-02T20:40:00Z,26.4040,-90.7920,0.0,31.32813,11111222 
ADCP,ioos:station:wmo:42395:1,2019-08-02T21:00:00Z,26.4040,-90.7920,0.0,31.32813,11111222 
ADCP,ioos:station:wmo:42395:1,2019-08-02T21:20:00Z,26.4040,-90.7920,0.0,31.52344,11111222 
ADCP,ioos:station:wmo:42395:1,2019-08-02T21:40:00Z,26.4040,-90.7920,0.0,31.40625,11111222 
ADCP,ioos:station:wmo:42395:1,2019-08-02T22:00:00Z,26.4040,-90.7920,0.0,31.52344,11111222 
ADCP,ioos:station:wmo:42395:1,2019-08-02T22:20:00Z,26.4040,-90.7920,0.0,31.5625,11111222 
ADCP,ioos:station:wmo:42395:1,2019-08-02T22:40:00Z,26.4040,-90.7920,0.0,31.48438,11111222 
ADCP,ioos:station:wmo:42395:1,2019-08-02T23:00:00Z,26.4040,-90.7920,0.0,31.36719,11111222 
ADCP,ioos:station:wmo:42395:1,2019-08-02T23:20:00Z,26.4040,-90.7920,0.0,31.05469,11111222 
ADCP,ioos:station:wmo:42395:1,2019-08-02T23:40:00Z,26.4040,-90.7920,0.0,30.9375,11111222 
ADCP,ioos:station:wmo:42395:1,2019-08-03T00:00:00Z,26.4040,-90.7920,0.0,30.66406,11111222 
ADCP,ioos:station:wmo:42395:1,2019-08-03T00:20:00Z,26.4040,-90.7920,0.0,30.50781,11111222 
ADCP,ioos:station:wmo:42395:1,2019-08-03T00:40:00Z,26.4040,-90.7920,0.0,30.42969,11111222 
ADCP,ioos:station:wmo:42395:1,2019-08-03T01:20:00Z,26.4040,-90.7920,0.0,30.46875,11111222 
ADCP,ioos:station:wmo:42395:1,2019-08-03T01:40:00Z,26.4040,-90.7920,0.0,30.39063,11111222 
ADCP,ioos:station:wmo:42395:1,2019-08-03T02:00:00Z,26.4040,-90.7920,0.0,30.42969,11111222 
ADCP,ioos:station:wmo:42395:1,2019-08-03T02:20:00Z,26.4040,-90.7920,0.0,30.39063,11111222 
ADCP,ioos:station:wmo:42395:1,2019-08-03T02:40:00Z,26.4040,-90.7920,0.0,30.46875,11111222 
ADCP,ioos:station:wmo:42395:1,2019-08-03T03:00:00Z,26.4040,-90.7920,0.0,30.50781,11111222 
ADCP,ioos:station:wmo:42395:1,2019-08-03T03:20:00Z,26.4040,-90.7920,0.0,30.35156,11111222 
ADCP,ioos:station:wmo:42395:1,2019-08-03T03:40:00Z,26.4040,-90.7920,0.0,30.23438,11111222 
ADCP,ioos:station:wmo:42395:1,2019-08-03T04:00:00Z,26.4040,-90.7920,0.0,30.23438,11111222 
ADCP,ioos:station:wmo:42395:1,2019-08-03T04:20:00Z,26.4040,-90.7920,0.0,30.23438,11111222 
ADCP,ioos:station:wmo:42395:1,2019-08-03T04:40:00Z,26.4040,-90.7920,0.0,30.15625,11111222 
ADCP,ioos:station:wmo:42395:1,2019-08-03T05:00:00Z,26.4040,-90.7920,0.0,30.11719,11111222 
ADCP,ioos:station:wmo:42395:1,2019-08-03T05:20:00Z,26.4040,-90.7920,0.0,30.0,11111222 
ADCP,ioos:station:wmo:42395:1,2019-08-03T05:40:00Z,26.4040,-90.7920,0.0,29.88281,11111222 
ADCP,ioos:station:wmo:42395:1,2019-08-03T06:00:00Z,26.4040,-90.7920,0.0,29.80469,11111222 
ADCP,ioos:station:wmo:42395:1,2019-08-03T06:20:00Z,26.4040,-90.7920,0.0,29.6875,11111222 
ADCP,ioos:station:wmo:42395:1,2019-08-03T06:40:00Z,26.4040,-90.7920,0.0,29.84375,11111222 
ADCP,ioos:station:wmo:42395:1,2019-08-03T07:00:00Z,26.4040,-90.7920,0.0,30.07813,11111222 
ADCP,ioos:station:wmo:42395:1,2019-08-03T07:20:00Z,26.4040,-90.7920,0.0,30.11719,11111222 
ADCP,ioos:station:wmo:42395:1,2019-08-03T07:40:00Z,26.4040,-90.7920,0.0,30.11719,11111222 
ADCP,ioos:station:wmo:42395:1,2019-08-03T08:00:00Z,26.4040,-90.7920,0.0,30.07813,11111222 
ADCP,ioos:station:wmo:42395:1,2019-08-03T08:20:00Z,26.4040,-90.7920,0.0,30.07813,11111222 
ADCP,ioos:station:wmo:42395:1,2019-08-03T08:40:00Z,26.4040,-90.7920,0.0,30.07813,11111222 
ADCP,ioos:station:wmo:42395:1,2019-08-03T09:00:00Z,26.4040,-90.7920,0.0,30.15625,11111222 
ADCP,ioos:station:wmo:42395:1,2019-08-03T09:20:00Z,26.4040,-90.7920,0.0,29.96094,11111222 
ADCP,ioos:station:wmo:42395:1,2019-08-03T09:40:00Z,26.4040,-90.7920,0.0,30.0,11111222 
ADCP,ioos:station:wmo:42395:1,2019-08-03T10:00:00Z,26.4040,-90.7920,0.0,29.96094,11111222 
ADCP,ioos:station:wmo:42395:1,2019-08-03T10:20:00Z,26.4040,-90.7920,0.0,29.88281,11111222 
ADCP,ioos:station:wmo:42395:1,2019-08-03T10:40:00Z,26.4040,-90.7920,0.0,29.92188,11111222 
ADCP,ioos:station:wmo:42395:1,2019-08-03T11:00:00Z,26.4040,-90.7920,0.0,30.03906,11111222 
ADCP,ioos:station:wmo:42395:1,2019-08-03T11:20:00Z,26.4040,-90.7920,0.0,29.96094,11111222 
ADCP,ioos:station:wmo:42395:1,2019-08-03T11:40:00Z,26.4040,-90.7920,0.0,29.80469,11111222 
ADCP,ioos:station:wmo:42395:1,2019-08-03T12:00:00Z,26.4040,-90.7920,0.0,29.72656,11111222 
ADCP,ioos:station:wmo:42395:1,2019-08-03T12:20:00Z,26.4040,-90.7920,0.0,29.64844,11111222 
ADCP,ioos:station:wmo:42395:1,2019-08-03T12:40:00Z,26.4040,-90.7920,0.0,29.49219,11111222 
ADCP,ioos:station:wmo:42395:1,2019-08-03T13:00:00Z,26.4040,-90.7920,0.0,29.49219,11111222 
ADCP,ioos:station:wmo:42395:1,2019-08-03T13:20:00Z,26.4040,-90.7920,0.0,29.45313,11111222 
ADCP,ioos:station:wmo:42395:1,2019-08-03T13:40:00Z,26.4040,-90.7920,0.0,29.45313,11111222 
ADCP,ioos:station:wmo:42395:1,2019-08-03T14:20:00Z,26.4040,-90.7920,0.0,29.49219,11111222 
ADCP,ioos:station:wmo:42395:1,2019-08-03T14:40:00Z,26.4040,-90.7920,0.0,29.49219,11111222 
ADCP,ioos:station:wmo:42395:1,2019-08-03T15:00:00Z,26.4040,-90.7920,0.0,29.57031,11111222 
ADCP,ioos:station:wmo:42395:1,2019-08-03T15:20:00Z,26.4040,-90.7920,0.0,29.6875,11111222 
ADCP,ioos:station:wmo:42395:1,2019-08-03T15:40:00Z,26.4040,-90.7920,0.0,29.84375,11111222 
ADCP,ioos:station:wmo:42395:1,2019-08-03T16:00:00Z,26.4040,-90.7920,0.0,30.0,11111222 
ADCP,ioos:station:wmo:42395:1,2019-08-03T16:20:00Z,26.4040,-90.7920,0.0,30.15625,11111222 
ADCP,ioos:station:wmo:42395:1,2019-08-03T16:40:00Z,26.4040,-90.7920,0.0,30.3125,11111222 
ADCP,ioos:station:wmo:42395:1,2019-08-03T17:00:00Z,26.4040,-90.7920,0.0,30.11719,11111222 
ADCP,ioos:station:wmo:42395:1,2019-08-03T17:20:00Z,26.4040,-90.7920,0.0,30.39063,11111222 
ADCP,ioos:station:wmo:42395:1,2019-08-03T17:40:00Z,26.4040,-90.7920,0.0,30.35156,11111222 
ADCP,ioos:station:wmo:42395:1,2019-08-03T18:00:00Z,26.4040,-90.7920,0.0,30.27344,11111222 
ADCP,ioos:station:wmo:42395:1,2019-08-03T18:20:00Z,26.4040,-90.7920,0.0,30.23438,11111222 
ADCP,ioos:station:wmo:42395:1,2019-08-03T18:40:00Z,26.4040,-90.7920,0.0,30.39063,11111222 
ADCP,ioos:station:wmo:42395:1,2019-08-03T19:00:00Z,26.4040,-90.7920,0.0,30.625,11111222 
ADCP,ioos:station:wmo:42395:1,2019-08-03T19:20:00Z,26.4040,-90.7920,0.0,30.85938,11111222 
ADCP,ioos:station:wmo:42395:1,2019-08-03T19:40:00Z,26.4040,-90.7920,0.0,31.13281,11111222 
ADCP,ioos:station:wmo:42395:1,2019-08-03T20:00:00Z,26.4040,-90.7920,0.0,31.28906,11111222 
ADCP,ioos:station:wmo:42395:1,2019-08-03T20:20:00Z,26.4040,-90.7920,0.0,31.21094,11111222 
ADCP,ioos:station:wmo:42395:1,2019-08-03T20:40:00Z,26.4040,-90.7920,0.0,31.28906,11111222 
ADCP,ioos:station:wmo:42395:1,2019-08-03T21:00:00Z,26.4040,-90.7920,0.0,31.13281,11111222 
ADCP,ioos:station:wmo:42395:1,2019-08-03T21:20:00Z,26.4040,-90.7920,0.0,31.32813,11111222 
ADCP,ioos:station:wmo:42395:1,2019-08-03T21:40:00Z,26.4040,-90.7920,0.0,31.32813,11111222 
ADCP,ioos:station:wmo:42395:1,2019-08-03T22:00:00Z,26.4040,-90.7920,0.0,31.28906,11111222 
ADCP,ioos:station:wmo:42395:1,2019-08-03T22:20:00Z,26.4040,-90.7920,0.0,31.32813,11111222 
ADCP,ioos:station:wmo:42395:1,2019-08-03T22:40:00Z,26.4040,-90.7920,0.0,31.17188,11111222 
ADCP,ioos:station:wmo:42395:1,2019-08-03T23:00:00Z,26.4040,-90.7920,0.0,31.28906,11111222 
ADCP,ioos:station:wmo:42395:1,2019-08-03T23:20:00Z,26.4040,-90.7920,0.0,31.13281,11111222 
ADCP,ioos:station:wmo:42395:1,2019-08-03T23:40:00Z,26.4040,-90.7920,0.0,31.05469,11111222 
ADCP,ioos:station:wmo:42395:1,2019-08-04T00:00:00Z,26.4040,-90.7920,0.0,30.89844,11111222 
ADCP,ioos:station:wmo:42395:1,2019-08-04T00:20:00Z,26.4040,-90.7920,0.0,30.89844,11111222 
ADCP,ioos:station:wmo:42395:1,2019-08-04T00:40:00Z,26.4040,-90.7920,0.0,30.85938,11111222 
ADCP,ioos:station:wmo:42395:1,2019-08-04T01:00:00Z,26.4040,-90.7920,0.0,30.85938,11111222 
ADCP,ioos:station:wmo:42395:1,2019-08-04T01:20:00Z,26.4040,-90.7920,0.0,30.82031,11111222 
ADCP,ioos:station:wmo:42395:1,2019-08-04T01:40:00Z,26.4040,-90.7920,0.0,30.78125,11111222 
ADCP,ioos:station:wmo:42395:1,2019-08-04T02:00:00Z,26.4040,-90.7920,0.0,30.58594,11111222 
ADCP,ioos:station:wmo:42395:1,2019-08-04T02:20:00Z,26.4040,-90.7920,0.0,30.46875,11111222 
ADCP,ioos:station:wmo:42395:1,2019-08-04T02:40:00Z,26.4040,-90.7920,0.0,30.3125,11111222 
ADCP,ioos:station:wmo:42395:1,2019-08-04T03:00:00Z,26.4040,-90.7920,0.0,30.23438,11111222 
ADCP,ioos:station:wmo:42395:1,2019-08-04T03:20:00Z,26.4040,-90.7920,0.0,30.19531,11111222 
ADCP,ioos:station:wmo:42395:1,2019-08-04T03:40:00Z,26.4040,-90.7920,0.0,30.07813,11111222 
ADCP,ioos:station:wmo:42395:1,2019-08-04T04:00:00Z,26.4040,-90.7920,0.0,29.96094,11111222 
ADCP,ioos:station:wmo:42395:1,2019-08-04T04:20:00Z,26.4040,-90.7920,0.0,29.92188,11111222 
ADCP,ioos:station:wmo:42395:1,2019-08-04T04:40:00Z,26.4040,-90.7920,0.0,29.88281,11111222 
ADCP,ioos:station:wmo:42395:1,2019-08-04T05:00:00Z,26.4040,-90.7920,0.0,29.80469,11111222 
ADCP,ioos:station:wmo:42395:1,2019-08-04T05:20:00Z,26.4040,-90.7920,0.0,29.76563,11111222 
ADCP,ioos:station:wmo:42395:1,2019-08-04T05:40:00Z,26.4040,-90.7920,0.0,29.76563,11111222 
ADCP,ioos:station:wmo:42395:1,2019-08-04T06:00:00Z,26.4040,-90.7920,0.0,29.76563,11111222 
ADCP,ioos:station:wmo:42395:1,2019-08-04T06:20:00Z,26.4040,-90.7920,0.0,29.72656,11111222 
ADCP,ioos:station:wmo:42395:1,2019-08-04T06:40:00Z,26.4040,-90.7920,0.0,29.72656,11111222 
ADCP,ioos:station:wmo:42395:1,2019-08-04T07:00:00Z,26.4040,-90.7920,0.0,29.72656,11111222 
ADCP,ioos:station:wmo:42395:1,2019-08-04T07:20:00Z,26.4040,-90.7920,0.0,29.6875,11111222 
ADCP,ioos:station:wmo:42395:1,2019-08-04T07:40:00Z,26.4040,-90.7920,0.0,29.64844,11111222 
ADCP,ioos:station:wmo:42395:1,2019-08-04T08:00:00Z,26.4040,-90.7920,0.0,29.60938,11111222 
ADCP,ioos:station:wmo:42395:1,2019-08-04T08:20:00Z,26.4040,-90.7920,0.0,29.60938,11111222 
ADCP,ioos:station:wmo:42395:1,2019-08-04T08:40:00Z,26.4040,-90.7920,0.0,29.60938,11111222 
ADCP,ioos:station:wmo:42395:1,2019-08-04T09:00:00Z,26.4040,-90.7920,0.0,29.60938,11111222 
ADCP,ioos:station:wmo:42395:1,2019-08-04T09:20:00Z,26.4040,-90.7920,0.0,29.60938,11111222 
ADCP,ioos:station:wmo:42395:1,2019-08-04T09:40:00Z,26.4040,-90.7920,0.0,29.64844,11111222 
ADCP,ioos:station:wmo:42395:1,2019-08-04T10:00:00Z,26.4040,-90.7920,0.0,29.64844,11111222 
ADCP,ioos:station:wmo:42395:1,2019-08-04T10:20:00Z,26.4040,-90.7920,0.0,29.76563,11111222 
ADCP,ioos:station:wmo:42395:1,2019-08-04T10:40:00Z,26.4040,-90.7920,0.0,29.80469,11111222 
ADCP,ioos:station:wmo:42395:1,2019-08-04T11:00:00Z,26.4040,-90.7920,0.0,29.76563,11111222 
ADCP,ioos:station:wmo:42395:1,2019-08-04T11:20:00Z,26.4040,-90.7920,0.0,29.76563,11111222 
ADCP,ioos:station:wmo:42395:1,2019-08-04T11:40:00Z,26.4040,-90.7920,0.0,29.76563,11111222 
ADCP,ioos:station:wmo:42395:1,2019-08-04T12:00:00Z,26.4040,-90.7920,0.0,29.72656,11111222 
ADCP,ioos:station:wmo:42395:1,2019-08-04T12:20:00Z,26.4040,-90.7920,0.0,29.72656,11111222 
ADCP,ioos:station:wmo:42395:1,2019-08-04T12:40:00Z,26.4040,-90.7920,0.0,29.6875,11111222 
ADCP,ioos:station:wmo:42395:1,2019-08-04T13:00:00Z,26.4040,-90.7920,0.0,29.6875,11111222 
ADCP,ioos:station:wmo:42395:1,2019-08-04T13:20:00Z,26.4040,-90.7920,0.0,29.6875,11111222 
ADCP,ioos:station:wmo:42395:1,2019-08-04T13:40:00Z,26.4040,-90.7920,0.0,29.6875,11111222 
ADCP,ioos:station:wmo:42395:1,2019-08-04T14:00:00Z,26.4040,-90.7920,0.0,29.6875,11111222 
ADCP,ioos:station:wmo:42395:1,2019-08-04T14:20:00Z,26.4040,-90.7920,0.0,29.6875,11111222 
ADCP,ioos:station:wmo:42395:1,2019-08-04T14:40:00Z,26.4040,-90.7920,0.0,29.6875,11111222 
ADCP,ioos:station:wmo:42395:1,2019-08-04T15:00:00Z,26.4040,-90.7920,0.0,29.72656,11111222 
ADCP,ioos:station:wmo:42395:1,2019-08-04T15:20:00Z,26.4040,-90.7920,0.0,29.72656,11111222 
ADCP,ioos:station:wmo:42395:1,2019-08-04T15:40:00Z,26.4040,-90.7920,0.0,29.72656,11111222 
ADCP,ioos:station:wmo:42395:1,2019-08-04T16:00:00Z,26.4040,-90.7920,0.0,29.80469,11111222 
ADCP,ioos:station:wmo:42395:1,2019-08-04T16:20:00Z,26.4040,-90.7920,0.0,29.88281,11111222 